TimeEDT,TemperatureF,Dew PointF,Humidity,Sea Level PressureIn,VisibilityMPH,Wind Direction,Wind SpeedMPH,Gust SpeedMPH,PrecipitationIn,Events,Conditions,WindDirDegrees,DateUTC
12:15 AM,30.2,26.6,86,29.96,10.0,West,16.1,-,N/A,,Overcast,280,2013-03-13 04:15:00
12:35 AM,30.2,24.8,80,29.96,10.0,West,12.7,-,N/A,,Overcast,270,2013-03-13 04:35:00
12:55 AM,30.2,24.8,80,29.96,10.0,West,13.8,21.9,N/A,,Overcast,280,2013-03-13 04:55:00
1:15 AM,30.2,24.8,80,29.97,10.0,West,15.0,23.0,N/A,,Overcast,280,2013-03-13 05:15:00
1:55 AM,28.4,21.2,74,29.97,10.0,West,12.7,-,N/A,,Scattered Clouds,280,2013-03-13 05:55:00
2:15 AM,28.4,21.2,74,29.97,10.0,West,11.5,17.3,N/A,,Scattered Clouds,280,2013-03-13 06:15:00
2:35 AM,26.6,21.2,80,29.97,10.0,West,10.4,-,N/A,,Scattered Clouds,270,2013-03-13 06:35:00
2:55 AM,26.6,21.2,80,29.97,10.0,West,13.8,-,N/A,,Scattered Clouds,280,2013-03-13 06:55:00
3:15 AM,28.4,23.0,80,29.97,7.0,West,16.1,20.7,N/A,Snow,Light Snow,280,2013-03-13 07:15:00
3:35 AM,26.6,21.2,80,29.97,10.0,West,15.0,-,N/A,,Mostly Cloudy,270,2013-03-13 07:35:00
3:55 AM,26.6,21.2,80,29.97,10.0,West,12.7,18.4,N/A,Snow,Light Snow,280,2013-03-13 07:55:00
4:35 AM,26.6,21.2,80,29.97,7.0,West,11.5,-,N/A,Snow,Light Snow,270,2013-03-13 08:35:00
4:55 AM,26.6,23.0,86,29.97,10.0,West,13.8,19.6,N/A,,Overcast,270,2013-03-13 08:55:00
5:15 AM,26.6,23.0,86,29.98,10.0,West,15.0,-,N/A,,Overcast,270,2013-03-13 09:15:00
5:35 AM,26.6,23.0,86,29.98,10.0,West,17.3,-,N/A,,Overcast,270,2013-03-13 09:35:00
5:55 AM,26.6,23.0,86,29.99,10.0,West,15.0,23.0,N/A,,Overcast,280,2013-03-13 09:55:00
6:15 AM,26.6,23.0,86,30.00,10.0,West,12.7,-,N/A,,Overcast,280,2013-03-13 10:15:00
6:35 AM,26.6,21.2,80,30.00,10.0,West,13.8,-,N/A,,Mostly Cloudy,280,2013-03-13 10:35:00
6:55 AM,26.6,23.0,86,30.01,10.0,West,17.3,21.9,N/A,,Overcast,280,2013-03-13 10:55:00
7:15 AM,26.6,21.2,80,30.01,10.0,West,17.3,-,N/A,,Overcast,280,2013-03-13 11:15:00
7:35 AM,26.6,23.0,86,30.02,1.8,West,13.8,-,N/A,Snow,Light Snow,280,2013-03-13 11:35:00
7:55 AM,26.6,21.2,80,30.03,10.0,West,15.0,-,N/A,,Overcast,280,2013-03-13 11:55:00
8:15 AM,26.6,23.0,86,30.04,1.5,WNW,11.5,-,N/A,Snow,Light Snow,290,2013-03-13 12:15:00
8:35 AM,26.6,23.0,86,30.05,1.2,WNW,13.8,17.3,N/A,Snow,Light Snow,290,2013-03-13 12:35:00
8:55 AM,26.6,23.0,86,30.06,1.2,WNW,13.8,21.9,N/A,Snow,Light Snow,300,2013-03-13 12:55:00
9:15 AM,26.6,23.0,86,30.07,2.5,WNW,13.8,-,N/A,Snow,Light Snow,290,2013-03-13 13:15:00
9:35 AM,26.6,21.2,80,30.08,5.0,WNW,13.8,-,N/A,Snow,Light Snow,300,2013-03-13 13:35:00
9:55 AM,26.6,19.4,74,30.09,10.0,WNW,15.0,24.2,N/A,Snow,Light Snow,290,2013-03-13 13:55:00
10:15 AM,26.6,19.4,74,30.10,10.0,WNW,18.4,-,N/A,,Overcast,300,2013-03-13 14:15:00
10:35 AM,26.6,19.4,74,30.10,10.0,WNW,16.1,25.3,N/A,,Overcast,290,2013-03-13 14:35:00
10:55 AM,26.6,19.4,74,30.11,10.0,NW,17.3,24.2,N/A,,Mostly Cloudy,310,2013-03-13 14:55:00
11:15 AM,26.6,19.4,74,30.12,10.0,NW,19.6,24.2,N/A,,Mostly Cloudy,310,2013-03-13 15:15:00
11:35 AM,28.4,19.4,69,30.13,10.0,WNW,13.8,25.3,N/A,,Mostly Cloudy,300,2013-03-13 15:35:00
12:15 PM,28.4,19.4,69,30.14,10.0,WNW,16.1,25.3,N/A,,Overcast,300,2013-03-13 16:15:00
12:35 PM,28.4,19.4,69,30.15,10.0,NW,19.6,27.6,N/A,Snow,Light Snow,310,2013-03-13 16:35:00
12:55 PM,28.4,21.2,74,30.16,10.0,WNW,20.7,24.2,N/A,Snow,Light Snow,290,2013-03-13 16:55:00
1:15 PM,28.4,19.4,69,30.16,10.0,WNW,20.7,26.5,N/A,,Overcast,300,2013-03-13 17:15:00
1:35 PM,28.4,19.4,69,30.17,7.0,WNW,21.9,28.8,N/A,Snow,Light Snow,300,2013-03-13 17:35:00
1:55 PM,28.4,21.2,74,30.18,7.0,WNW,21.9,26.5,N/A,Snow,Light Snow,290,2013-03-13 17:55:00
2:15 PM,28.4,17.6,64,30.19,10.0,WNW,23.0,27.6,N/A,,Overcast,300,2013-03-13 18:15:00
2:35 PM,28.4,19.4,69,30.19,10.0,WNW,18.4,25.3,N/A,Snow,Light Snow,300,2013-03-13 18:35:00
2:55 PM,28.4,21.2,74,30.19,7.0,WNW,20.7,26.5,N/A,Snow,Light Snow,290,2013-03-13 18:55:00
3:15 PM,28.4,21.2,74,30.20,10.0,WNW,18.4,24.2,N/A,Snow,Light Snow,300,2013-03-13 19:15:00
3:35 PM,28.4,21.2,74,30.20,10.0,West,19.6,26.5,N/A,Snow,Light Snow,280,2013-03-13 19:35:00
3:55 PM,28.4,21.2,74,30.20,10.0,NW,20.7,27.6,N/A,Snow,Light Snow,310,2013-03-13 19:55:00
4:15 PM,30.2,21.2,69,30.20,10.0,WNW,19.6,26.5,N/A,,Overcast,300,2013-03-13 20:15:00
4:35 PM,28.4,19.4,69,30.21,10.0,WNW,18.4,25.3,N/A,,Overcast,290,2013-03-13 20:35:00
4:55 PM,28.4,19.4,69,30.22,10.0,NW,16.1,24.2,N/A,,Overcast,310,2013-03-13 20:55:00
5:15 PM,30.2,17.6,60,30.23,10.0,NW,20.7,27.6,N/A,,Overcast,310,2013-03-13 21:15:00
5:35 PM,28.4,17.6,64,30.24,10.0,NW,19.6,26.5,N/A,,Overcast,310,2013-03-13 21:35:00
5:55 PM,30.2,17.6,60,30.24,10.0,WNW,15.0,21.9,N/A,,Mostly Cloudy,300,2013-03-13 21:55:00
6:15 PM,28.4,17.6,64,30.25,10.0,WNW,15.0,20.7,N/A,,Mostly Cloudy,300,2013-03-13 22:15:00
6:35 PM,28.4,17.6,64,30.25,10.0,WNW,17.3,23.0,N/A,,Scattered Clouds,300,2013-03-13 22:35:00
6:55 PM,28.4,17.6,64,30.25,10.0,NW,13.8,20.7,N/A,,Scattered Clouds,310,2013-03-13 22:55:00
7:15 PM,28.4,15.8,59,30.26,10.0,NW,12.7,-,N/A,,Clear,310,2013-03-13 23:15:00
7:35 PM,28.4,15.8,59,30.26,10.0,NW,13.8,-,N/A,,Clear,310,2013-03-13 23:35:00
7:55 PM,26.6,15.8,64,30.27,10.0,NW,11.5,-,N/A,,Clear,310,2013-03-13 23:55:00
8:15 PM,26.6,14.0,59,30.27,10.0,NW,11.5,19.6,N/A,,Clear,310,2013-03-14 00:15:00
8:35 PM,26.6,14.0,59,30.27,10.0,WNW,10.4,-,N/A,,Clear,300,2013-03-14 00:35:00
8:55 PM,26.6,14.0,59,30.28,10.0,WNW,8.1,-,N/A,,Clear,300,2013-03-14 00:55:00
9:15 PM,26.6,14.0,59,30.28,10.0,WNW,9.2,-,N/A,,Clear,300,2013-03-14 01:15:00
9:35 PM,23.0,14.0,68,30.28,10.0,WNW,8.1,-,N/A,,Clear,290,2013-03-14 01:35:00
9:55 PM,23.0,14.0,68,30.28,10.0,WNW,5.8,-,N/A,,Clear,290,2013-03-14 01:55:00
10:15 PM,23.0,14.0,68,30.28,10.0,West,6.9,-,N/A,,Clear,280,2013-03-14 02:15:00
10:35 PM,21.2,12.2,68,30.28,10.0,WNW,6.9,-,N/A,,Clear,290,2013-03-14 02:35:00
10:55 PM,23.0,14.0,68,30.29,10.0,West,6.9,-,N/A,,Clear,280,2013-03-14 02:55:00
11:15 PM,21.2,12.2,68,30.29,10.0,West,6.9,-,N/A,,Clear,280,2013-03-14 03:15:00
11:35 PM,21.2,14.0,74,30.30,10.0,West,4.6,-,N/A,,Clear,260,2013-03-14 03:35:00
11:55 PM,23.0,14.0,68,30.30,10.0,WSW,4.6,-,N/A,,Clear,250,2013-03-14 03:55:00